owner,sensor,date,latitude,longitude,vertical_datum,direction_of_sea_water_velocity,sea_water_speed,upward_sea_water_velocity,qcFlag 
TABS,ioos:station:wmo:42045:1,2004-12-01T00:00:00Z,26.2168,-96.4998,2.0,204.4338307,24.05436551,-99999.0,'11111222,11111222,99999999' 
TABS,ioos:station:wmo:42045:1,2004-12-01T00:30:00Z,26.2168,-96.4998,2.0,208.7260357,26.44466298,-99999.0,'11111222,11111222,99999999' 
TABS,ioos:station:wmo:42045:1,2004-12-01T01:00:00Z,26.2168,-96.4998,2.0,219.7325484,31.27303311,-99999.0,'11111222,11111222,99999999' 
TABS,ioos:station:wmo:42045:1,2004-12-01T01:30:00Z,26.2168,-96.4998,2.0,215.6641392,28.90039619,-99999.0,'11111222,11111222,99999999' 
TABS,ioos:station:wmo:42045:1,2004-12-01T02:00:00Z,26.2168,-96.4998,2.0,216.1676865,29.06018066,-99999.0,'11111222,11111222,99999999' 
TABS,ioos:station:wmo:42045:1,2004-12-01T02:30:00Z,26.2168,-96.4998,2.0,210.2226721,25.8658636,-99999.0,'11111222,11111222,99999999' 
TABS,ioos:station:wmo:42045:1,2004-12-01T03:00:00Z,26.2168,-96.4998,2.0,221.2516772,28.55748238,-99999.0,'11111222,11111222,99999999' 
TABS,ioos:station:wmo:42045:1,2004-12-01T03:30:00Z,26.2168,-96.4998,2.0,210.4008043,27.94189686,-99999.0,'11111222,11111222,99999999' 
TABS,ioos:station:wmo:42045:1,2004-12-01T04:00:00Z,26.2168,-96.4998,2.0,214.0855968,25.69432622,-99999.0,'11111222,11111222,99999999' 
TABS,ioos:station:wmo:42045:1,2004-12-01T04:30:00Z,26.2168,-96.4998,2.0,213.2499656,26.73733719,-99999.0,'11111222,11111222,99999999' 
TABS,ioos:station:wmo:42045:1,2004-12-01T05:00:00Z,26.2168,-96.4998,2.0,222.1841342,27.20695683,-99999.0,'11111222,11111222,99999999' 
TABS,ioos:station:wmo:42045:1,2004-12-01T05:30:00Z,26.2168,-96.4998,2.0,217.7625294,25.53910139,-99999.0,'11111222,11111222,99999999' 
TABS,ioos:station:wmo:42045:1,2004-12-01T06:00:00Z,26.2168,-96.4998,2.0,214.9643054,18.82840939,-99999.0,'11111222,11111222,99999999' 
TABS,ioos:station:wmo:42045:1,2004-12-01T06:30:00Z,26.2168,-96.4998,2.0,215.5986557,19.56681374,-99999.0,'11111222,11111222,99999999' 
TABS,ioos:station:wmo:42045:1,2004-12-01T07:00:00Z,26.2168,-96.4998,2.0,224.8961693,15.65536969,-99999.0,'11111222,11111222,99999999' 
TABS,ioos:station:wmo:42045:1,2004-12-01T07:30:00Z,26.2168,-96.4998,2.0,225.7774055,15.62849961,-99999.0,'11111222,11111222,99999999' 
TABS,ioos:station:wmo:42045:1,2004-12-01T08:00:00Z,26.2168,-96.4998,2.0,230.3181846,18.91877374,-99999.0,'11111222,11111222,99999999' 
TABS,ioos:station:wmo:42045:1,2004-12-01T08:30:00Z,26.2168,-96.4998,2.0,226.6411917,14.07012793,-99999.0,'11111222,11111222,99999999' 
TABS,ioos:station:wmo:42045:1,2004-12-01T09:00:00Z,26.2168,-96.4998,2.0,224.0623031,14.69564561,-99999.0,'11111222,11111222,99999999' 
TABS,ioos:station:wmo:42045:1,2004-12-01T09:30:00Z,26.2168,-96.4998,2.0,232.5901072,12.74056514,-99999.0,'11111222,11111222,99999999' 
TABS,ioos:station:wmo:42045:1,2004-12-01T10:00:00Z,26.2168,-96.4998,2.0,238.873541,12.70981117,-99999.0,'11111222,11111222,99999999' 
TABS,ioos:station:wmo:42045:1,2004-12-01T10:30:00Z,26.2168,-96.4998,2.0,232.2843768,8.810959085,-99999.0,'11133222,11111222,99999999' 
TABS,ioos:station:wmo:42045:1,2004-12-01T11:00:00Z,26.2168,-96.4998,2.0,241.7728957,7.865322625,-99999.0,'11133222,11111222,99999999' 
TABS,ioos:station:wmo:42045:1,2004-12-01T11:30:00Z,26.2168,-96.4998,2.0,228.239377,7.131963264,-99999.0,'11133222,11111222,99999999' 
TABS,ioos:station:wmo:42045:1,2004-12-01T12:00:00Z,26.2168,-96.4998,2.0,246.2118845,9.321936494,-99999.0,'11133222,11111222,99999999' 
TABS,ioos:station:wmo:42045:1,2004-12-01T12:30:00Z,26.2168,-96.4998,2.0,229.5136622,4.312586231,-99999.0,'11133222,11111222,99999999' 
TABS,ioos:station:wmo:42045:1,2004-12-01T13:00:00Z,26.2168,-96.4998,2.0,237.7195749,5.74843457,-99999.0,'11133222,11111222,99999999' 
TABS,ioos:station:wmo:42045:1,2004-12-01T13:30:00Z,26.2168,-96.4998,2.0,228.6973221,4.166461328,-99999.0,'11133222,11111222,99999999' 
TABS,ioos:station:wmo:42045:1,2004-12-01T14:00:00Z,26.2168,-96.4998,2.0,216.869601,1.45,-99999.0,'11133222,11111222,99999999' 
TABS,ioos:station:wmo:42045:1,2004-12-01T14:30:00Z,26.2168,-96.4998,2.0,241.5828674,8.027203747,-99999.0,'11133222,11111222,99999999' 
TABS,ioos:station:wmo:42045:1,2004-12-01T15:00:00Z,26.2168,-96.4998,2.0,248.8228025,4.429096973,-99999.0,'11133222,11111222,99999999' 
TABS,ioos:station:wmo:42045:1,2004-12-01T15:30:00Z,26.2168,-96.4998,2.0,239.7572954,5.857140941,-99999.0,'11133222,11111222,99999999' 
TABS,ioos:station:wmo:42045:1,2004-12-01T16:00:00Z,26.2168,-96.4998,2.0,241.139999,5.138131956,-99999.0,'11133222,11111222,99999999' 
TABS,ioos:station:wmo:42045:1,2004-12-01T16:30:00Z,26.2168,-96.4998,2.0,219.4847856,4.120291252,-99999.0,'11133222,11111222,99999999' 
TABS,ioos:station:wmo:42045:1,2004-12-01T17:00:00Z,26.2168,-96.4998,2.0,219.8363896,2.357159307,-99999.0,'11133222,11111222,99999999' 
TABS,ioos:station:wmo:42045:1,2004-12-01T17:30:00Z,26.2168,-96.4998,2.0,226.3016339,0.622414653,-99999.0,'11133222,11111222,99999999' 
TABS,ioos:station:wmo:42045:1,2004-12-01T18:00:00Z,26.2168,-96.4998,2.0,218.4228721,3.025111568,-99999.0,'11133222,11111222,99999999' 
TABS,ioos:station:wmo:42045:1,2004-12-01T18:30:00Z,26.2168,-96.4998,2.0,180.743847,3.850324662,-99999.0,'11133222,11111222,99999999' 
TABS,ioos:station:wmo:42045:1,2004-12-01T19:00:00Z,26.2168,-96.4998,2.0,176.8449541,3.815783013,-99999.0,'11133222,11111222,99999999' 
TABS,ioos:station:wmo:42045:1,2004-12-01T19:30:00Z,26.2168,-96.4998,2.0,181.7758296,2.581240012,-99999.0,'11133222,11111222,99999999' 
TABS,ioos:station:wmo:42045:1,2004-12-01T20:00:00Z,26.2168,-96.4998,2.0,167.6258638,2.006614064,-99999.0,'11133222,11111222,99999999' 
TABS,ioos:station:wmo:42045:1,2004-12-01T20:30:00Z,26.2168,-96.4998,2.0,180.4958433,2.310086578,-99999.0,'11133222,11111222,99999999' 
TABS,ioos:station:wmo:42045:1,2004-12-01T21:00:00Z,26.2168,-96.4998,2.0,214.4836625,3.603123645,-99999.0,'11133222,11111222,99999999' 
TABS,ioos:station:wmo:42045:1,2004-12-01T21:30:00Z,26.2168,-96.4998,2.0,118.2252675,1.543534904,-99999.0,'11133222,11111222,99999999' 
TABS,ioos:station:wmo:42045:1,2004-12-01T22:00:00Z,26.2168,-96.4998,2.0,101.5601038,2.694661389,-99999.0,'11133222,11111222,99999999' 
TABS,ioos:station:wmo:42045:1,2004-12-01T22:30:00Z,26.2168,-96.4998,2.0,197.845774,2.153624851,-99999.0,'11133222,11111222,99999999' 
TABS,ioos:station:wmo:42045:1,2004-12-01T23:00:00Z,26.2168,-96.4998,2.0,112.3286042,1.210784869,-99999.0,'11133222,11111222,99999999' 
TABS,ioos:station:wmo:42045:1,2004-12-01T23:30:00Z,26.2168,-96.4998,2.0,179.9997895,0.39,-99999.0,'11133222,11111222,99999999' 
TABS,ioos:station:wmo:42045:1,2004-12-02T00:00:00Z,26.2168,-96.4998,2.0,17.32630664,2.451224184,-99999.0,'11133222,11111222,99999999' 
TABS,ioos:station:wmo:42045:1,2004-12-02T00:30:00Z,26.2168,-96.4998,2.0,40.54451282,1.092245394,-99999.0,'11133222,11111222,99999999' 
TABS,ioos:station:wmo:42045:1,2004-12-02T01:00:00Z,26.2168,-96.4998,2.0,246.5010684,1.25399362,-99999.0,'11133222,11111222,99999999' 
TABS,ioos:station:wmo:42045:1,2004-12-02T01:30:00Z,26.2168,-96.4998,2.0,134.9998948,1.272792206,-99999.0,'11133222,11111222,99999999' 
TABS,ioos:station:wmo:42045:1,2004-12-02T02:00:00Z,26.2168,-96.4998,2.0,86.85504989,1.822745182,-99999.0,'11133222,11111222,99999999' 
TABS,ioos:station:wmo:42045:1,2004-12-02T02:30:00Z,26.2168,-96.4998,2.0,92.8221487,1.421724305,-99999.0,'11133222,11111222,99999999' 
TABS,ioos:station:wmo:42045:1,2004-12-02T03:00:00Z,26.2168,-96.4998,2.0,123.8018942,1.420035211,-99999.0,'11133222,11111222,99999999' 
TABS,ioos:station:wmo:42045:1,2004-12-02T03:30:00Z,26.2168,-96.4998,2.0,70.26314466,2.783522948,-99999.0,'11133222,11111222,99999999' 
TABS,ioos:station:wmo:42045:1,2004-12-02T04:00:00Z,26.2168,-96.4998,2.0,129.2255824,4.427742088,-99999.0,'11133222,11111222,99999999' 
TABS,ioos:station:wmo:42045:1,2004-12-02T04:30:00Z,26.2168,-96.4998,2.0,128.4179655,2.961080884,-99999.0,'11133222,11111222,99999999' 
TABS,ioos:station:wmo:42045:1,2004-12-02T05:00:00Z,26.2168,-96.4998,2.0,76.90813755,1.324424403,-99999.0,'11133222,11111222,99999999' 
TABS,ioos:station:wmo:42045:1,2004-12-02T05:30:00Z,26.2168,-96.4998,2.0,189.2458807,2.613962509,-99999.0,'11133222,11111222,99999999' 
TABS,ioos:station:wmo:42045:1,2004-12-02T06:00:00Z,26.2168,-96.4998,2.0,217.5827879,2.410186715,-99999.0,'11133222,11111222,99999999' 
TABS,ioos:station:wmo:42045:1,2004-12-02T06:30:00Z,26.2168,-96.4998,2.0,165.5404282,1.642010962,-99999.0,'11133222,11111222,99999999' 
TABS,ioos:station:wmo:42045:1,2004-12-02T07:00:00Z,26.2168,-96.4998,2.0,305.4336521,0.638200595,-99999.0,'11133222,11111222,99999999' 
TABS,ioos:station:wmo:42045:1,2004-12-02T07:30:00Z,26.2168,-96.4998,2.0,71.95663019,1.388272308,-99999.0,'11133222,11111222,99999999' 
TABS,ioos:station:wmo:42045:1,2004-12-02T08:00:00Z,26.2168,-96.4998,2.0,213.9252385,2.024672813,-99999.0,'11133222,11111222,99999999' 
TABS,ioos:station:wmo:42045:1,2004-12-02T08:30:00Z,26.2168,-96.4998,2.0,233.2803472,1.522005256,-99999.0,'11133222,11111222,99999999' 
TABS,ioos:station:wmo:42045:1,2004-12-02T09:00:00Z,26.2168,-96.4998,2.0,179.9997895,2.55,-99999.0,'11133222,11111222,99999999' 
TABS,ioos:station:wmo:42045:1,2004-12-02T09:30:00Z,26.2168,-96.4998,2.0,182.7522685,2.082402459,-99999.0,'11133222,11111222,99999999' 
TABS,ioos:station:wmo:42045:1,2004-12-02T10:00:00Z,26.2168,-96.4998,2.0,238.0752348,2.250377746,-99999.0,'11133222,11111222,99999999' 
TABS,ioos:station:wmo:42045:1,2004-12-02T10:30:00Z,26.2168,-96.4998,2.0,276.9116319,0.332415403,-99999.0,'11133222,11111222,99999999' 
TABS,ioos:station:wmo:42045:1,2004-12-02T11:00:00Z,26.2168,-96.4998,2.0,236.864047,0.859825564,-99999.0,'11133222,11111222,99999999' 
TABS,ioos:station:wmo:42045:1,2004-12-02T11:30:00Z,26.2168,-96.4998,2.0,288.2430601,1.884728097,-99999.0,'11133222,11111222,99999999' 
TABS,ioos:station:wmo:42045:1,2004-12-02T12:00:00Z,26.2168,-96.4998,2.0,246.5317351,2.234860175,-99999.0,'11133222,11111222,99999999' 
TABS,ioos:station:wmo:42045:1,2004-12-02T12:30:00Z,26.2168,-96.4998,2.0,238.0915468,1.248679302,-99999.0,'11133222,11111222,99999999' 
TABS,ioos:station:wmo:42045:1,2004-12-02T13:00:00Z,26.2168,-96.4998,2.0,245.6683941,1.262101422,-99999.0,'11133222,11111222,99999999' 
TABS,ioos:station:wmo:42045:1,2004-12-02T13:30:00Z,26.2168,-96.4998,2.0,297.5654818,3.587199465,-99999.0,'11133222,11111222,99999999' 
TABS,ioos:station:wmo:42045:1,2004-12-02T14:00:00Z,26.2168,-96.4998,2.0,337.5208286,1.255388386,-99999.0,'11133222,11111222,99999999' 
TABS,ioos:station:wmo:42045:1,2004-12-02T14:30:00Z,26.2168,-96.4998,2.0,260.397619,2.697795396,-99999.0,'11133222,11111222,99999999' 
TABS,ioos:station:wmo:42045:1,2004-12-02T15:00:00Z,26.2168,-96.4998,2.0,282.2197053,1.606393476,-99999.0,'11133222,11111222,99999999' 
TABS,ioos:station:wmo:42045:1,2004-12-02T15:30:00Z,26.2168,-96.4998,2.0,258.1293423,3.208613408,-99999.0,'11133222,11111222,99999999' 
TABS,ioos:station:wmo:42045:1,2004-12-02T16:00:00Z,26.2168,-96.4998,2.0,263.6594022,1.177200068,-99999.0,'11133222,11111222,99999999' 
TABS,ioos:station:wmo:42045:1,2004-12-02T16:30:00Z,26.2168,-96.4998,2.0,199.9828493,0.819328994,-99999.0,'11133222,11111222,99999999' 
TABS,ioos:station:wmo:42045:1,2004-12-02T17:00:00Z,26.2168,-96.4998,2.0,270.0004209,1.32,-99999.0,'11133222,11111222,99999999' 
TABS,ioos:station:wmo:42045:1,2004-12-02T17:30:00Z,26.2168,-96.4998,2.0,258.7219887,3.477139629,-99999.0,'11133222,11111222,99999999' 
TABS,ioos:station:wmo:42045:1,2004-12-02T18:00:00Z,26.2168,-96.4998,2.0,239.140896,2.807436553,-99999.0,'11133222,11111222,99999999' 
TABS,ioos:station:wmo:42045:1,2004-12-02T18:30:00Z,26.2168,-96.4998,2.0,202.2215488,1.771581215,-99999.0,'11133222,11111222,99999999' 
TABS,ioos:station:wmo:42045:1,2004-12-02T19:00:00Z,26.2168,-96.4998,2.0,233.558539,4.276119736,-99999.0,'11133222,11111222,99999999' 
TABS,ioos:station:wmo:42045:1,2004-12-02T19:30:00Z,26.2168,-96.4998,2.0,264.329235,2.833866616,-99999.0,'11133222,11111222,99999999' 
TABS,ioos:station:wmo:42045:1,2004-12-02T20:00:00Z,26.2168,-96.4998,2.0,251.1306238,3.339461034,-99999.0,'11133222,11111222,99999999' 
TABS,ioos:station:wmo:42045:1,2004-12-02T20:30:00Z,26.2168,-96.4998,2.0,279.6340591,2.748763358,-99999.0,'11133222,11111222,99999999' 
TABS,ioos:station:wmo:42045:1,2004-12-02T21:00:00Z,26.2168,-96.4998,2.0,225.6458484,3.762047315,-99999.0,'11133222,11111222,99999999' 
TABS,ioos:station:wmo:42045:1,2004-12-02T21:30:00Z,26.2168,-96.4998,2.0,254.6432415,3.474032239,-99999.0,'11133222,11111222,99999999' 
TABS,ioos:station:wmo:42045:1,2004-12-02T22:00:00Z,26.2168,-96.4998,2.0,264.537098,3.676696887,-99999.0,'11133222,11111222,99999999' 
TABS,ioos:station:wmo:42045:1,2004-12-02T22:30:00Z,26.2168,-96.4998,2.0,229.1042649,7.606766724,-99999.0,'11133222,11111222,99999999' 
TABS,ioos:station:wmo:42045:1,2004-12-02T23:00:00Z,26.2168,-96.4998,2.0,215.4254788,5.951890456,-99999.0,'11133222,11111222,99999999' 
TABS,ioos:station:wmo:42045:1,2004-12-02T23:30:00Z,26.2168,-96.4998,2.0,234.0788954,4.34659637,-99999.0,'11133222,11111222,99999999' 
TABS,ioos:station:wmo:42045:1,2004-12-03T00:00:00Z,26.2168,-96.4998,2.0,195.5517385,2.200568108,-99999.0,'11133222,11111222,99999999' 
TABS,ioos:station:wmo:42045:1,2004-12-03T00:30:00Z,26.2168,-96.4998,2.0,220.3546167,4.540396458,-99999.0,'11133222,11111222,99999999' 
TABS,ioos:station:wmo:42045:1,2004-12-03T01:00:00Z,26.2168,-96.4998,2.0,195.4325474,5.373760322,-99999.0,'11133222,11111222,99999999' 
TABS,ioos:station:wmo:42045:1,2004-12-03T01:30:00Z,26.2168,-96.4998,2.0,206.1465696,6.126989473,-99999.0,'11133222,11111222,99999999' 
TABS,ioos:station:wmo:42045:1,2004-12-03T02:00:00Z,26.2168,-96.4998,2.0,210.0756703,7.083741949,-99999.0,'11133222,11111222,99999999' 
TABS,ioos:station:wmo:42045:1,2004-12-03T02:30:00Z,26.2168,-96.4998,2.0,213.1861939,6.942341104,-99999.0,'11133222,11111222,99999999' 
TABS,ioos:station:wmo:42045:1,2004-12-03T03:00:00Z,26.2168,-96.4998,2.0,207.5615803,9.76862324,-99999.0,'11133222,11111222,99999999' 
TABS,ioos:station:wmo:42045:1,2004-12-03T03:30:00Z,26.2168,-96.4998,2.0,201.6381987,8.488168236,-99999.0,'11133222,11111222,99999999' 
TABS,ioos:station:wmo:42045:1,2004-12-03T04:00:00Z,26.2168,-96.4998,2.0,203.7551241,10.67440396,-99999.0,'11111222,11111222,99999999' 
TABS,ioos:station:wmo:42045:1,2004-12-03T04:30:00Z,26.2168,-96.4998,2.0,209.2521007,11.25532763,-99999.0,'11111222,11111222,99999999' 
TABS,ioos:station:wmo:42045:1,2004-12-03T05:00:00Z,26.2168,-96.4998,2.0,210.6032962,14.73201955,-99999.0,'11111222,11111222,99999999' 
TABS,ioos:station:wmo:42045:1,2004-12-03T05:30:00Z,26.2168,-96.4998,2.0,213.7456492,17.06535965,-99999.0,'11111222,11111222,99999999' 
TABS,ioos:station:wmo:42045:1,2004-12-03T06:00:00Z,26.2168,-96.4998,2.0,220.0129881,14.47978591,-99999.0,'11111222,11111222,99999999' 
TABS,ioos:station:wmo:42045:1,2004-12-03T06:30:00Z,26.2168,-96.4998,2.0,223.1818433,14.04313711,-99999.0,'11111222,11111222,99999999' 
TABS,ioos:station:wmo:42045:1,2004-12-03T07:00:00Z,26.2168,-96.4998,2.0,223.1888617,16.33525329,-99999.0,'11111222,11111222,99999999' 
TABS,ioos:station:wmo:42045:1,2004-12-03T07:30:00Z,26.2168,-96.4998,2.0,216.5308002,15.22026609,-99999.0,'11111222,11111222,99999999' 
TABS,ioos:station:wmo:42045:1,2004-12-03T08:00:00Z,26.2168,-96.4998,2.0,232.2226843,17.43418481,-99999.0,'11111222,11111222,99999999' 
TABS,ioos:station:wmo:42045:1,2004-12-03T08:30:00Z,26.2168,-96.4998,2.0,242.3813529,14.84105454,-99999.0,'11111222,11111222,99999999' 
TABS,ioos:station:wmo:42045:1,2004-12-03T09:00:00Z,26.2168,-96.4998,2.0,245.8485266,19.43078485,-99999.0,'11111222,11111222,99999999' 
TABS,ioos:station:wmo:42045:1,2004-12-03T09:30:00Z,26.2168,-96.4998,2.0,238.8993079,17.98510773,-99999.0,'11111222,11111222,99999999' 
TABS,ioos:station:wmo:42045:1,2004-12-03T10:00:00Z,26.2168,-96.4998,2.0,251.2209258,16.33978274,-99999.0,'11111222,11111222,99999999' 
TABS,ioos:station:wmo:42045:1,2004-12-03T10:30:00Z,26.2168,-96.4998,2.0,251.9072597,17.45292239,-99999.0,'11111222,11111222,99999999' 
TABS,ioos:station:wmo:42045:1,2004-12-03T11:00:00Z,26.2168,-96.4998,2.0,240.839174,16.29529073,-99999.0,'11111222,11111222,99999999' 
TABS,ioos:station:wmo:42045:1,2004-12-03T11:30:00Z,26.2168,-96.4998,2.0,242.5560838,20.41770065,-99999.0,'11111222,11111222,99999999' 
TABS,ioos:station:wmo:42045:1,2004-12-03T12:00:00Z,26.2168,-96.4998,2.0,255.5700407,18.01839616,-99999.0,'11111222,11111222,99999999' 
TABS,ioos:station:wmo:42045:1,2004-12-03T12:30:00Z,26.2168,-96.4998,2.0,248.7929249,9.482114743,-99999.0,'11133222,11111222,99999999' 
TABS,ioos:station:wmo:42045:1,2004-12-03T13:00:00Z,26.2168,-96.4998,2.0,252.916913,21.0381677,-99999.0,'11111222,11111222,99999999' 
TABS,ioos:station:wmo:42045:1,2004-12-03T13:30:00Z,26.2168,-96.4998,2.0,242.9382742,21.16741364,-99999.0,'11111222,11111222,99999999' 
TABS,ioos:station:wmo:42045:1,2004-12-03T14:00:00Z,26.2168,-96.4998,2.0,261.9592656,21.66294994,-99999.0,'11111222,11111222,99999999' 
TABS,ioos:station:wmo:42045:1,2004-12-03T14:30:00Z,26.2168,-96.4998,2.0,240.5524451,18.14404586,-99999.0,'11111222,11111222,99999999' 
TABS,ioos:station:wmo:42045:1,2004-12-03T15:00:00Z,26.2168,-96.4998,2.0,252.3434355,20.47447679,-99999.0,'11111222,11111222,99999999' 
TABS,ioos:station:wmo:42045:1,2004-12-03T15:30:00Z,26.2168,-96.4998,2.0,257.3266351,15.0875611,-99999.0,'11111222,11111222,99999999' 
TABS,ioos:station:wmo:42045:1,2004-12-03T16:00:00Z,26.2168,-96.4998,2.0,259.3573401,18.68133025,-99999.0,'11111222,11111222,99999999' 
TABS,ioos:station:wmo:42045:1,2004-12-03T16:30:00Z,26.2168,-96.4998,2.0,263.3652704,14.62795269,-99999.0,'11111222,11111222,99999999' 
TABS,ioos:station:wmo:42045:1,2004-12-03T17:00:00Z,26.2168,-96.4998,2.0,262.1448383,13.53700853,-99999.0,'11111222,11111222,99999999' 
TABS,ioos:station:wmo:42045:1,2004-12-03T17:30:00Z,26.2168,-96.4998,2.0,248.7096348,13.52287322,-99999.0,'11111222,11111222,99999999' 
TABS,ioos:station:wmo:42045:1,2004-12-03T18:00:00Z,26.2168,-96.4998,2.0,255.3485219,13.56094761,-99999.0,'11111222,11111222,99999999' 
TABS,ioos:station:wmo:42045:1,2004-12-03T18:30:00Z,26.2168,-96.4998,2.0,261.8581904,14.33446895,-99999.0,'11111222,11111222,99999999' 
TABS,ioos:station:wmo:42045:1,2004-12-03T19:00:00Z,26.2168,-96.4998,2.0,253.512075,14.51691427,-99999.0,'11111222,11111222,99999999' 
TABS,ioos:station:wmo:42045:1,2004-12-03T19:30:00Z,26.2168,-96.4998,2.0,259.3176601,10.7360421,-99999.0,'11111222,11111222,99999999' 
TABS,ioos:station:wmo:42045:1,2004-12-03T20:00:00Z,26.2168,-96.4998,2.0,271.6166327,12.05479573,-99999.0,'11111222,11111222,99999999' 
TABS,ioos:station:wmo:42045:1,2004-12-03T20:30:00Z,26.2168,-96.4998,2.0,252.994436,11.65978559,-99999.0,'11111222,11111222,99999999' 
TABS,ioos:station:wmo:42045:1,2004-12-03T21:00:00Z,26.2168,-96.4998,2.0,265.1097667,10.55842791,-99999.0,'11111222,11111222,99999999' 
TABS,ioos:station:wmo:42045:1,2004-12-03T21:30:00Z,26.2168,-96.4998,2.0,264.8231628,8.645258816,-99999.0,'11133222,11111222,99999999' 
TABS,ioos:station:wmo:42045:1,2004-12-03T22:00:00Z,26.2168,-96.4998,2.0,259.5127581,9.01050498,-99999.0,'11133222,11111222,99999999' 
TABS,ioos:station:wmo:42045:1,2004-12-03T22:30:00Z,26.2168,-96.4998,2.0,256.4390374,5.842884562,-99999.0,'11133222,11111222,99999999' 
TABS,ioos:station:wmo:42045:1,2004-12-03T23:30:00Z,26.2168,-96.4998,2.0,247.1593599,4.19926184,-99999.0,'11133222,11111222,99999999' 
TABS,ioos:station:wmo:42045:1,2004-12-04T00:00:00Z,26.2168,-96.4998,2.0,205.5693946,2.316916054,-99999.0,'11133222,11111222,99999999' 
TABS,ioos:station:wmo:42045:1,2004-12-04T00:30:00Z,26.2168,-96.4998,2.0,187.1633203,1.84439692,-99999.0,'11133222,11111222,99999999' 
TABS,ioos:station:wmo:42045:1,2004-12-04T01:00:00Z,26.2168,-96.4998,2.0,162.8971006,1.904205871,-99999.0,'11133222,11111222,99999999' 
TABS,ioos:station:wmo:42045:1,2004-12-04T01:30:00Z,26.2168,-96.4998,2.0,164.235631,2.171681376,-99999.0,'11133222,11111222,99999999' 
TABS,ioos:station:wmo:42045:1,2004-12-04T02:00:00Z,26.2168,-96.4998,2.0,172.5523901,3.086033052,-99999.0,'11133222,11111222,99999999' 
TABS,ioos:station:wmo:42045:1,2004-12-04T02:30:00Z,26.2168,-96.4998,2.0,145.0169428,5.162799628,-99999.0,'11133222,11111222,99999999' 
TABS,ioos:station:wmo:42045:1,2004-12-04T03:00:00Z,26.2168,-96.4998,2.0,174.7063597,3.143405796,-99999.0,'11133222,11111222,99999999' 
TABS,ioos:station:wmo:42045:1,2004-12-04T03:30:00Z,26.2168,-96.4998,2.0,177.6562577,5.624704437,-99999.0,'11133222,11111222,99999999' 
TABS,ioos:station:wmo:42045:1,2004-12-04T04:00:00Z,26.2168,-96.4998,2.0,167.3090287,5.371219601,-99999.0,'11133222,11111222,99999999' 
TABS,ioos:station:wmo:42045:1,2004-12-04T05:00:00Z,26.2168,-96.4998,2.0,170.3896474,7.00835216,-99999.0,'11133222,11111222,99999999' 
TABS,ioos:station:wmo:42045:1,2004-12-04T05:30:00Z,26.2168,-96.4998,2.0,155.3913443,5.763471176,-99999.0,'11133222,11111222,99999999' 
TABS,ioos:station:wmo:42045:1,2004-12-04T06:00:00Z,26.2168,-96.4998,2.0,170.6927355,9.707795836,-99999.0,'11133222,11111222,99999999' 
TABS,ioos:station:wmo:42045:1,2004-12-04T06:30:00Z,26.2168,-96.4998,2.0,186.0918085,8.668956108,-99999.0,'11133222,11111222,99999999' 
TABS,ioos:station:wmo:42045:1,2004-12-04T07:00:00Z,26.2168,-96.4998,2.0,173.4841044,7.931229413,-99999.0,'11133222,11111222,99999999' 
TABS,ioos:station:wmo:42045:1,2004-12-04T07:30:00Z,26.2168,-96.4998,2.0,177.6241501,11.5799525,-99999.0,'11111222,11111222,99999999' 
TABS,ioos:station:wmo:42045:1,2004-12-04T08:00:00Z,26.2168,-96.4998,2.0,175.2979457,12.32146501,-99999.0,'11111222,11111222,99999999' 
TABS,ioos:station:wmo:42045:1,2004-12-04T08:30:00Z,26.2168,-96.4998,2.0,180.2726239,10.50011905,-99999.0,'11111222,11111222,99999999' 
TABS,ioos:station:wmo:42045:1,2004-12-04T09:00:00Z,26.2168,-96.4998,2.0,192.2788019,11.94321983,-99999.0,'11111222,11111222,99999999' 
TABS,ioos:station:wmo:42045:1,2004-12-04T09:30:00Z,26.2168,-96.4998,2.0,178.0265599,11.61688857,-99999.0,'11111222,11111222,99999999' 
TABS,ioos:station:wmo:42045:1,2004-12-04T10:00:00Z,26.2168,-96.4998,2.0,190.107747,13.27606116,-99999.0,'11111222,11111222,99999999' 
TABS,ioos:station:wmo:42045:1,2004-12-04T10:30:00Z,26.2168,-96.4998,2.0,172.5061037,13.87853378,-99999.0,'11111222,11111222,99999999' 
TABS,ioos:station:wmo:42045:1,2004-12-04T11:30:00Z,26.2168,-96.4998,2.0,186.055241,13.5556372,-99999.0,'11111222,11111222,99999999' 
TABS,ioos:station:wmo:42045:1,2004-12-04T12:00:00Z,26.2168,-96.4998,2.0,189.503899,11.26462161,-99999.0,'11111222,11111222,99999999' 
TABS,ioos:station:wmo:42045:1,2004-12-04T12:30:00Z,26.2168,-96.4998,2.0,190.0204388,5.22978011,-99999.0,'11133222,11111222,99999999' 
TABS,ioos:station:wmo:42045:1,2004-12-04T13:00:00Z,26.2168,-96.4998,2.0,186.4032965,13.98726564,-99999.0,'11111222,11111222,99999999' 
TABS,ioos:station:wmo:42045:1,2004-12-04T13:30:00Z,26.2168,-96.4998,2.0,192.8765129,9.10907789,-99999.0,'11133222,11111222,99999999' 
TABS,ioos:station:wmo:42045:1,2004-12-04T14:00:00Z,26.2168,-96.4998,2.0,199.0775175,13.24761488,-99999.0,'11111222,11111222,99999999' 
TABS,ioos:station:wmo:42045:1,2004-12-04T14:30:00Z,26.2168,-96.4998,2.0,199.766912,12.24132346,-99999.0,'11111222,11111222,99999999' 
TABS,ioos:station:wmo:42045:1,2004-12-04T15:00:00Z,26.2168,-96.4998,2.0,200.8541988,11.46082458,-99999.0,'11111222,11111222,99999999' 
TABS,ioos:station:wmo:42045:1,2004-12-04T15:30:00Z,26.2168,-96.4998,2.0,200.3303131,10.70700705,-99999.0,'11111222,11111222,99999999' 
TABS,ioos:station:wmo:42045:1,2004-12-04T16:00:00Z,26.2168,-96.4998,2.0,202.4637323,13.00697121,-99999.0,'11111222,11111222,99999999' 
TABS,ioos:station:wmo:42045:1,2004-12-04T16:30:00Z,26.2168,-96.4998,2.0,198.4003454,10.54936017,-99999.0,'11111222,11111222,99999999' 
TABS,ioos:station:wmo:42045:1,2004-12-04T17:00:00Z,26.2168,-96.4998,2.0,203.787689,11.99941665,-99999.0,'11111222,11111222,99999999' 
TABS,ioos:station:wmo:42045:1,2004-12-04T17:30:00Z,26.2168,-96.4998,2.0,205.0427886,9.260588534,-99999.0,'11133222,11111222,99999999' 